Tracking 30995 objects as of 5-Jul-2025
HD Live streaming from Space Station
objects crossing your sky now

SL-8 DEB

Track SL-8 DEB now!
10-day predictions


NORAD ID: 21174
Int'l Code: 1991-009AM
Perigee: 1,466.9 km
Apogee: 1,914.5 km
Inclination: 74.1 °
Period: 120.1 minutes
Semi major axis: 8061 km
RCS: 0.0735 m2 (small)
Launch date: February 12, 1991
Source: Commonwealth of Independent States (former USSR) (CIS)
Launch site: PLESETSK MISSILE AND SPACE COMPLEX (PKMTR)

Note: This is SATELLITE DEBRIS
Your satellite tracking list
STARLINK-5162
Track 1 satellite(s)




NASA's NSSDC Master Catalog

Two Line Element Set (TLE):
1 21174U 91009AM  25185.14698937  .00000058  00000-0  80413-3 0  9994
2 21174  74.0860 195.2715 0277605 336.3158  92.3177 11.99407107502777
Source of the keplerian elements: AFSPC